Location: Casaglia
(44.0333°N, 11.5167°E)
Time: 09:41:18
(UTC+00:00)

STARLINK-73 - Pass Details

Date: 07 June 2020
Orbit: 434 x 435 km, 53.0° (Epoch: 05 July)

Event Time Altitude Azimuth Distance (km) Brightness Sun altitude
Exits shadow 01:10:25 21° 136° (SE) 1,043 4.8 -18.0°
Drops below altitude 10° 01:13:14 10° 82° (E) 1,543 6.4 -17.7°
Enters shadow 02:08:03 -72° 237° (WSW) 12,605 10.4 -12.1°
Maximum altitude 02:47:23 56° 330° (NNW) 524 3.6 -7.1°
